This demonstration page uses our WeatherBlox Daily Observations layout. Learn more.

Left ArrowRight Arrow

39.51506, -84.39828

Hourly Observations for November 3, 2021

Temp ( °F °C ) Dew Point ( °F °C ) Humidity (%) Winds ( mph kmh ) Pressure ( in mb ) Visibility ( mi km ) Precip ( " mm )
12:15 am 00:15 Clear 33 0.7 26 -3.1 76 76 Calm 30.41 1030 10 16 0.00 0.00
12:35 am 00:35 Clear 29 -1.5 26 -3.5 86 86 Calm 30.42 1030 10 16 0.00 0.00
12:55 am 00:55 Clear 29 -1.5 26 -3.2 88 88 Calm 30.41 1030 10 16 0.00 0.00
1:15 am 01:15 Clear 30 -1 27 -2.7 88 88 Calm 30.42 1030 10 16 0.00 0.00
1:35 am 01:35 Clear 29 -1.7 25 -4.1 84 84 Calm 30.42 1030 10 16 0.00 0.00
1:55 am 01:55 Clear 30 -1 28 -2.1 92 92 Calm 30.42 1030 10 16 0.00 0.00
2:15 am 02:15 Clear 29 -1.4 27 -3 89 89 Calm 30.43 1030 10 16 0.00 0.00
2:35 am 02:35 Clear 29 -1.8 28 -2.5 95 95 NW 3 6 30.43 1030 10 16 0.00 0.00
2:55 am 02:55 Clear 27 -2.9 26 -3.5 96 96 Calm 30.43 1031 10 16 0.00 0.00
3:15 am 03:15 Clear 28 -2 28 -2.5 96 96 Calm 30.43 1031 10 16 0.00 0.00
3:35 am 03:35 Clear 27 -2.8 26 -3.3 96 96 Calm 30.44 1031 10 16 0.00 0.00
3:55 am 03:55 Clear 28 -2.5 27 -2.8 98 98 Calm 30.43 1031 7 11 0.00 0.00
4:15 am 04:15 Clear with Mist and Fog 28 -2.5 27 -2.7 99 99 Calm 30.43 1031 4 6 0.00 0.00
4:35 am 04:35 Clear 27 -2.6 27 -2.8 99 99 Calm 30.43 1031 10 16 0.00 0.00
4:55 am 04:55 Clear 26 -3.3 26 -3.5 99 99 Calm 30.43 1031 10 16 0.00 0.00
5:15 am 05:15 Clear with Mist and Fog 25 -3.7 25 -3.9 99 99 Calm 30.44 1031 2 3 0.00 0.00
5:35 am 05:35 Clear 25 -3.8 24 -4.2 97 97 Calm 30.44 1031 10 16 0.00 0.00
5:55 am 05:55 Clear 26 -3.2 26 -3.5 98 98 Calm 30.43 1031 10 16 0.00 0.00
6:15 am 06:15 Clear 26 -3.3 26 -3.6 98 98 NNE 3 6 30.44 1031 10 16 0.00 0.00
6:35 am 06:35 Clear 27 -2.9 26 -3.2 98 98 Calm 30.44 1031 10 16 0.00 0.00
6:55 am 06:55 Partly Cloudy 25 -3.8 25 -4.1 98 98 Calm 30.45 1031 10 16 0.00 0.00
7:15 am 07:15 Mostly Cloudy 26 -3.2 26 -3.5 98 98 Calm 30.44 1031 10 16 0.00 0.00
7:35 am 07:35 Cloudy with Freezing Fog 26 -3.1 26 -3.4 98 98 NNE 3 6 30.44 1031 N/A 0.00 0.00
7:55 am 07:55 Cloudy with Mist and Fog 26 -3.2 26 -3.5 98 98 Calm 30.44 1031 3 5 0.00 0.00
8:15 am 08:15 Cloudy with Mist and Fog 25 -3.7 25 -4 98 98 Calm 30.46 1031 2 2 0.00 0.00
8:35 am 08:35 Cloudy with Freezing Fog 27 -3 26 -3.3 98 98 Calm 30.46 1032 N/A 0.00 0.00
8:55 am 08:55 Cloudy with Freezing Fog 27 -2.7 27 -3 98 98 Calm 30.46 1032 N/A 0.00 0.00
9:15 am 09:15 Cloudy with Freezing Fog 28 -2.5 27 -2.8 98 98 Calm 30.47 1032 N/A 0.00 0.00
9:35 am 09:35 Cloudy with Mist and Fog 29 -1.5 29 -1.7 99 99 Calm 30.48 1032 1 1 0.00 0.00
9:55 am 09:55 Partly Cloudy with Mist and Fog 31 -0.5 31 -0.7 99 99 Calm 30.48 1032 7 11 0.00 0.00
10:15 am 10:15 Sunny 33 0.4 32 0.2 99 99 Calm 30.47 1032 10 16 0.00 0.00
10:35 am 10:35 Sunny 35 1.5 33 0.5 93 93 Calm 30.47 1032 10 16 0.00 0.00
10:55 am 10:55 Sunny 36 2.2 31 -0.4 83 83 S 3 6 30.47 1032 10 16 0.00 0.00
11:15 am 11:15 Sunny 37 2.7 32 -0.1 82 82 Calm 30.47 1032 10 16 0.00 0.00
11:35 am 11:35 Sunny 40 4.6 29 -1.4 65 65 Calm 30.45 1031 10 16 0.00 0.00
11:55 am 11:55 Sunny 42 5.4 30 -1.2 63 63 Calm 30.45 1031 10 16 0.00 0.00
12:15 pm 12:15 Sunny 43 6.2 28 -2 56 56 ENE 3 6 30.45 1031 10 16 0.00 0.00
12:35 pm 12:35 Sunny 44 6.9 28 -2.3 52 52 Calm 30.45 1031 10 16 0.00 0.00
12:55 pm 12:55 Sunny 46 7.5 27 -2.6 49 49 ENE 3 6 30.44 1031 10 16 0.00 0.00
1:15 pm 13:15 Sunny 47 8.4 26 -3.2 44 44 Calm 30.42 1030 10 16 0.00 0.00
1:35 pm 13:35 Sunny 47 8.5 25 -3.7 42 42 SSE 6 9 30.41 1030 10 16 0.00 0.00
1:55 pm 13:55 Partly Cloudy 48 9 25 -3.7 41 41 ESE 5 7 30.39 1029 10 16 0.00 0.00
2:15 pm 14:15 Partly Cloudy 49 9.4 27 -3 42 42 ENE 8 13 30.38 1029 10 16 0.00 0.00
2:35 pm 14:35 Sunny 49 9.2 24 -4.2 39 39 NE 6 9 30.37 1028 10 16 0.00 0.00
2:55 pm 14:55 Sunny 49 9.3 23 -5 36 36 N 7 11 30.36 1028 10 16 0.00 0.00
3:15 pm 15:15 Sunny 46 8 22 -5.3 39 39 NNW 3 6 30.36 1028 10 16 0.00 0.00
3:35 pm 15:35 Sunny 48 9 22 -5.4 36 36 W 5 7 30.35 1028 10 16 0.00 0.00
3:55 pm 15:55 Partly Cloudy 47 8.4 22 -5.6 37 37 W 3 6 30.35 1028 10 16 0.00 0.00
4:15 pm 16:15 Cloudy 49 9.5 20 -6.7 32 32 Calm 30.35 1028 10 16 0.00 0.00
4:35 pm 16:35 Cloudy 49 9.5 22 -5.7 34 34 ENE 5 7 30.35 1028 10 16 0.00 0.00
4:55 pm 16:55 Cloudy 49 9.2 23 -5.1 36 36 E 6 9 30.34 1027 10 16 0.00 0.00
5:15 pm 17:15 Mostly Cloudy 48 8.8 23 -5 38 38 NE 3 6 30.34 1027 10 16 0.01 0.25
5:35 pm 17:35 Mostly Cloudy 47 8.3 22 -5.5 37 37 N 3 6 30.34 1028 10 16 0.01 0.25
5:55 pm 17:55 Cloudy 46 7.8 23 -5.1 40 40 N 3 6 30.34 1028 10 16 0.01 0.25
6:15 pm 18:15 Cloudy 46 8 21 -5.9 37 37 Calm 30.34 1028 10 16 0.00 0.00
6:35 pm 18:35 Mostly Cloudy 45 7.1 26 -3.6 47 47 Calm 30.35 1028 10 16 0.00 0.00
6:55 pm 18:55 Partly Cloudy 43 6.2 29 -1.7 57 57 NNW 3 6 30.35 1028 10 16 0.00 0.00
7:15 pm 19:15 Partly Cloudy 41 5.2 31 -0.8 66 66 Calm 30.36 1028 10 16 0.00 0.00
7:35 pm 19:35 Clear 39 3.7 31 -0.5 74 74 Calm 30.37 1028 10 16 0.00 0.00
7:55 pm 19:55 Clear 38 3.6 31 -0.7 74 74 NNE 3 6 30.37 1028 10 16 0.00 0.00
8:15 pm 20:15 Clear 37 2.9 31 -0.7 77 77 Calm 30.37 1028 10 16 0.00 0.00
8:35 pm 20:35 Clear 35 1.8 31 -0.8 83 83 Calm 30.37 1028 10 16 0.00 0.00
8:55 pm 20:55 Clear 34 1.3 30 -0.9 85 85 N 3 6 30.37 1029 10 16 0.00 0.00
9:15 pm 21:15 Clear 33 0.4 30 -1.2 89 89 Calm 30.37 1029 10 16 0.00 0.00
9:35 pm 21:35 Clear 33 0.8 30 -1.1 87 87 NNW 3 6 30.37 1029 10 16 0.00 0.00
9:55 pm 21:55 Clear 32 0.1 30 -1.3 90 90 NNW 3 6 30.38 1029 10 16 0.00 0.00
10:15 pm 22:15 Clear 32 0 29 -1.5 90 90 NNW 3 6 30.39 1029 10 16 0.00 0.00
10:35 pm 22:35 Clear 31 -0.6 29 -1.6 93 93 NNW 3 6 30.39 1029 10 16 0.00 0.00
10:55 pm 22:55 Clear 29 -1.5 28 -2.5 93 93 NNW 3 6 30.40 1029 10 16 0.00 0.00
11:15 pm 23:15 Clear 30 -0.9 28 -2 92 92 NNW 3 6 30.40 1029 10 16 0.00 0.00
11:35 pm 23:35 Partly Cloudy 30 -1.3 28 -2.1 94 94 Calm 30.40 1029 10 16 0.00 0.00
11:55 pm 23:55 Partly Cloudy 29 -1.4 28 -2.2 94 94 NNW 3 6 30.40 1029 10 16 0.00 0.00

Powered by AerisWeather